Total_Precipitation_Accumulation
1.66 1.69 2.56 2.66 2.19 1.92 1.91 1.85 1.85 1.90 1.90 1.86 1.78 1.66 1.60 1.43 1.21 1.05 0.93 0.82 0.80 0.86 0.84 0.77 0.74 0.66 0.53 0.44 0.46 0.58 0.67 0.80 0.87 0.88 1.01 1.10 1.08 1.19 1.36 1.57 1.81 2.04 1.73
1.39 1.65 2.56 2.61 2.19 1.81 1.71 1.67 1.78 1.88 1.85 1.75 1.67 1.67 1.50 1.33 1.17 1.02 0.94 0.83 0.77 0.83 0.86 0.81 0.78 0.69 0.56 0.52 0.57 0.63 0.68 0.75 0.89 0.95 1.19 1.33 1.26 1.29 1.19 1.38 1.65 1.91 1.75
1.40 1.55 2.02 2.33 2.14 1.78 1.69 1.77 1.79 1.78 1.77 1.75 1.67 1.68 1.40 1.25 1.18 1.07 0.99 0.91 0.84 0.77 0.78 0.88 0.87 0.78 0.62 0.60 0.66 0.71 0.79 0.85 0.97 1.09 1.62 2.31 1.71 1.41 1.41 1.51 1.63 1.61 1.64
1.40 1.43 1.66 2.14 1.99 1.78 1.73 1.84 1.88 1.85 1.80 1.81 1.72 1.50 1.23 1.19 1.16 1.14 1.13 1.06 0.94 0.82 0.77 0.80 0.82 0.77 0.71 0.68 0.71 0.73 0.85 0.97 1.12 1.23 1.65 2.23 2.12 1.70 1.53 1.57 1.61 1.49 1.59
1.34 1.42 1.79 2.04 1.90 1.77 1.62 1.68 1.81 1.77 1.74 1.75 1.65 1.36 1.15 1.08 1.08 1.11 1.13 1.08 1.00 0.96 0.85 0.81 0.79 0.74 0.73 0.66 0.72 0.82 0.91 1.05 1.25 1.21 1.51 2.00 2.36 1.84 1.45 1.58 1.70 1.57 1.65
1.23 1.30 1.55 1.86 1.87 1.75 1.59 1.60 1.50 1.40 1.39 1.49 1.44 1.24 1.11 1.12 1.06 1.06 1.03 0.99 0.97 0.97 0.93 0.87 0.81 0.76 0.73 0.67 0.74 0.84 0.96 1.07 1.14 1.27 1.58 2.03 2.25 1.80 1.44 1.53 1.72 1.82 1.81
1.16 1.12 1.30 1.57 1.62 1.63 1.61 1.56 1.49 1.33 1.33 1.33 1.29 1.21 1.08 1.04 1.04 1.03 0.94 0.86 0.85 0.88 0.88 0.84 0.78 0.73 0.65 0.65 0.70 0.77 0.90 0.89 0.96 1.29 1.56 1.92 1.82 1.59 1.37 1.48 1.76 1.95 1.90
1.14 1.04 1.10 1.29 1.32 1.28 1.32 1.54 1.57 1.30 1.31 1.26 1.14 1.10 1.06 0.96 0.95 0.93 0.85 0.85 0.85 0.92 0.93 0.84 0.75 0.68 0.63 0.63 0.70 0.77 0.89 0.75 0.68 0.95 1.25 1.66 1.78 1.67 1.36 1.33 1.57 1.74 1.86
1.25 1.10 1.02 0.99 1.03 1.13 1.29 1.28 1.22 1.24 1.35 1.30 1.10 1.03 1.06 0.91 0.82 0.80 0.81 0.85 0.86 0.94 0.98 0.89 0.76 0.65 0.64 0.67 0.75 0.77 0.83 0.78 0.73 0.89 1.01 1.39 1.68 1.68 1.38 1.30 1.43 1.54 1.77
1.16 1.02 0.90 0.84 0.87 0.95 1.08 1.16 1.12 1.10 1.17 1.17 1.09 1.06 1.07 0.87 0.76 0.76 0.79 0.91 0.97 0.98 1.05 0.99 0.79 0.70 0.68 0.72 0.74 0.69 0.68 0.64 0.70 0.79 1.06 1.18 1.67 1.68 1.35 1.22 1.29 1.36 1.44
1.02 0.92 0.85 0.78 0.80 0.86 0.92 0.95 1.05 1.06 1.08 1.00 0.93 0.97 0.87 0.68 0.66 0.71 0.73 0.98 1.11 1.21 1.21 1.13 0.99 0.85 0.76 0.71 0.72 0.69 0.57 0.55 0.73 0.83 1.03 1.33 1.67 1.62 1.34 1.20 1.25 1.21 1.18
1.00 0.90 0.82 0.82 0.79 0.77 0.77 1.02 1.16 1.02 0.93 0.81 0.84 0.82 0.80 0.78 0.78 0.62 0.69 0.92 0.96 1.05 1.12 1.09 1.04 0.87 0.67 0.54 0.60 0.62 0.51 0.59 0.69 0.75 0.94 1.44 1.66 1.65 1.46 1.26 1.21 1.15 1.10
0.96 0.87 0.76 0.78 0.70 0.64 0.75 0.93 1.10 1.14 1.11 1.07 0.92 0.91 0.86 0.78 0.69 0.57 0.60 0.71 0.76 0.83 0.80 0.87 0.86 0.65 0.55 0.55 0.59 0.54 0.51 0.57 0.68 0.75 1.01 1.54 1.75 1.73 1.60 1.37 1.26 1.19 1.16
0.82 0.85 0.74 0.70 0.61 0.55 0.54 0.64 0.80 0.85 0.85 0.86 0.87 0.80 0.81 0.82 0.76 0.67 0.67 0.75 0.80 0.75 0.80 0.85 0.84 0.71 0.62 0.53 0.53 0.55 0.58 0.61 0.71 0.87 1.07 1.43 1.74 1.82 1.78 1.55 1.46 1.39 1.31
0.75 0.75 0.74 0.69 0.64 0.68 0.65 0.60 0.58 0.63 0.69 0.74 0.81 0.73 0.67 0.70 0.74 0.77 0.74 0.82 0.79 0.77 0.80 0.82 0.69 0.67 0.66 0.56 0.55 0.59 0.68 0.67 0.79 0.86 1.01 1.27 1.67 2.06 2.12 1.93 1.69 1.52 1.52
0.68 0.77 0.76 0.67 0.68 0.66 0.62 0.63 0.65 0.64 0.67 0.70 0.74 0.67 0.60 0.61 0.63 0.75 0.76 0.83 0.76 0.80 0.88 0.80 0.72 0.74 0.74 0.64 0.59 0.64 0.68 0.70 0.77 0.91 1.02 1.19 1.39 1.81 2.19 2.24 2.08 1.88 1.74
0.56 0.68 0.76 0.72 0.73 0.69 0.66 0.69 0.71 0.70 0.65 0.67 0.70 0.63 0.58 0.62 0.63 0.75 0.80 0.80 0.79 0.83 0.86 0.89 0.90 0.84 0.75 0.68 0.66 0.66 0.67 0.70 0.87 0.98 1.02 1.15 1.14 1.20 1.64 2.18 2.41 2.35 2.12
0.51 0.58 0.69 0.70 0.74 0.76 0.76 0.78 0.78 0.73 0.72 0.74 0.76 0.71 0.66 0.65 0.68 0.87 0.93 0.82 0.88 0.99 1.04 1.09 1.06 0.97 0.87 0.84 0.87 0.84 0.77 0.81 1.00 1.09 1.03 0.98 1.00 0.92 1.03 1.34 1.68 1.96 2.21
0.54 0.53 0.57 0.64 0.83 0.85 0.80 0.87 0.89 0.87 0.93 0.94 0.94 0.90 0.85 0.82 0.89 1.06 1.13 1.05 1.03 1.19 1.18 1.08 1.13 1.15 1.07 1.10 1.06 1.06 0.97 0.97 1.03 0.98 0.99 1.05 1.08 1.06 1.04 0.91 1.05 1.29 1.76
0.51 0.47 0.51 0.61 0.74 0.84 0.97 1.06 1.14 1.15 1.16 1.28 1.34 1.31 1.13 1.08 1.13 1.29 1.38 1.35 1.31 1.45 1.46 1.34 1.46 1.47 1.38 1.44 1.30 1.21 1.15 1.13 1.11 1.08 1.08 1.15 1.23 1.13 1.16 1.05 0.99 0.85 1.06
0.40 0.39 0.44 0.61 0.77 0.92 1.02 1.16 1.41 1.57 1.67 1.67 1.68 1.73 1.64 1.44 1.53 1.64 1.61 1.84 1.92 1.91 1.91 1.86 1.99 2.03 1.78 1.61 1.93 1.90 1.52 1.23 1.11 1.18 1.26 1.29 1.36 1.38 1.35 1.29 1.22 1.03 0.92
0.31 0.32 0.37 0.51 0.76 0.99 1.19 1.37 1.56 1.87 2.04 2.04 2.12 2.04 1.98 1.86 1.88 1.80 1.88 2.10 2.16 2.28 2.37 2.22 2.36 2.45 2.14 1.85 2.28 2.74 2.31 1.88 1.28 1.05 1.17 1.29 1.43 1.49 1.43 1.33 1.32 1.27 1.16
0.26 0.26 0.30 0.43 0.66 0.96 1.25 1.50 1.70 1.93 2.19 2.28 2.19 2.16 2.18 2.24 2.27 2.15 2.11 2.24 2.27 2.35 2.56 2.61 2.56 2.68 2.61 2.27 2.23 2.70 2.66 2.34 1.92 1.37 1.20 1.26 1.41 1.53 1.60 1.62 1.47 1.43 1.32
0.27 0.27 0.31 0.44 0.60 0.79 1.05 1.37 1.63 1.88 2.19 2.27 2.25 2.24 2.28 2.37 2.44 2.38 2.33 2.40 2.41 2.38 2.51 2.60 2.57 2.80 3.00 2.74 2.46 2.23 2.18 2.23 2.28 1.88 1.46 1.33 1.45 1.53 1.65 1.65 1.68 1.72 1.66
0.33 0.33 0.41 0.52 0.65 0.82 1.04 1.35 1.68 1.86 2.01 2.22 2.25 2.16 2.11 2.18 2.18 2.14 2.25 2.41 2.42 2.41 2.42 2.60 2.71 2.90 2.93 2.85 2.72 2.57 2.40 2.24 1.91 2.00 1.90 1.64 1.59 1.49 1.60 1.79 1.88 1.92 1.85
0.45 0.49 0.57 0.67 0.84 0.97 1.05 1.17 1.34 1.54 1.81 1.94 2.05 2.09 2.12 2.13 2.01 1.91 2.01 2.11 2.20 2.26 2.25 2.30 2.45 2.61 2.80 2.95 2.88 2.70 2.62 2.55 2.38 2.23 1.93 1.78 1.83 1.66 1.56 1.61 1.73 1.82 1.97